Location: Dittelspoint
(48.7198°N, 10.7214°E)
Time: 04:10:32
(UTC+00:00)

Cosmos 2058 Rocket - Pass Details

Date: 09 April 2020
Orbit: 610 x 639 km, 82.5° (Epoch: 06 June)

Event Time Altitude Azimuth Distance (km) Brightness Sun altitude
Rises 18:53:08 0° 176° (S) 2,931 6.2 -9.1°
Reaches altitude 10° 18:55:23 10° 172° (S) 2,027 5.4 -9.4°
Maximum altitude 18:59:47 55° 95° (E) 768 3.2 -10.1°
Drops below altitude 10° 19:04:12 10° 18° (NNE) 2,036 5.8 -10.8°
Sets 19:06:29 0° 14° (NNE) 2,947 6.7 -11.1°
